| time (UTC) | temp F | wind direction | speed MPH | gust MPH | rain 1hr in | rain 24hr in | rain mn in | humidity % | barometer mb |
| 20260906075420 | 71 | 137 | 0.0 | 0.0 | 0.00 | 0.00 | 0.00 | 99 | 1015.7 |
| 20260906074915 | 71 | 137 | 0.0 | 0.0 | 0.00 | 0.00 | 0.00 | 99 | 1015.8 |
| 20260906074409 | 71 | 137 | 0.0 | 0.0 | 0.00 | 0.00 | 0.00 | 99 | 1015.5 |
| 20260906073908 | 72 | 137 | 0.0 | 0.0 | 0.00 | 0.00 | 0.00 | 99 | 1015.8 |
| 20260906073403 | 72 | 137 | 0.0 | 0.0 | 0.00 | 0.00 | 0.00 | 99 | 1016.0 |
| 20260906072859 | 71 | 115 | 0.0 | 0.0 | 0.00 | 0.00 | 0.00 | 99 | 1016.1 |
| 20260906072354 | 71 | 116 | 0.0 | 0.0 | 0.00 | 0.00 | 0.00 | 99 | 1015.9 |
| 20260906071850 | 71 | 103 | 0.0 | 0.0 | 0.00 | 0.00 | 0.00 | 99 | 1016.1 |
| 20260906071345 | 72 | 101 | 0.0 | 0.0 | 0.00 | 0.00 | 0.00 | 99 | 1016.0 |
| 20260906070842 | 72 | 134 | 0.0 | 0.0 | 0.00 | 0.00 | 0.00 | 99 | 1015.9 |
| 20260906070337 | 71 | 120 | 0.0 | 0.0 | 0.00 | 0.00 | 0.00 | 99 | 1016.1 |
| 20260906065833 | 72 | 121 | 0.0 | 0.0 | 0.00 | 0.00 | 0.00 | 99 | 1016.1 |
| 20260906065327 | 72 | 121 | 0.0 | 0.0 | 0.00 | 0.00 | 0.00 | 99 | 1016.1 |
| 20260906064823 | 72 | 125 | 0.0 | 0.0 | 0.00 | 0.00 | 0.00 | 99 | 1016.2 |
| 20260906064319 | 72 | 124 | 0.0 | 0.0 | 0.00 | 0.00 | 0.00 | 99 | 1016.1 |
| 20260906063819 | 72 | 124 | 0.0 | 0.0 | 0.00 | 0.00 | 0.00 | 99 | 1015.9 |
| 20260906063315 | 72 | 124 | 0.0 | 0.0 | 0.00 | 0.00 | 0.00 | 99 | 1016.1 |
| 20260906062809 | 72 | 125 | 0.0 | 0.0 | 0.00 | 0.00 | 0.00 | 99 | 1015.9 |
| 20260906062309 | 72 | 121 | 0.0 | 0.0 | 0.00 | 0.00 | 0.00 | 99 | 1016.0 |
| 20260906061804 | 72 | 114 | 0.0 | 0.0 | 0.00 | 0.00 | 0.00 | 99 | 1016.0 |
| 20260906061301 | 72 | 112 | 0.0 | 0.0 | 0.00 | 0.00 | 0.00 | 99 | 1015.9 |
| 20260906060755 | 72 | 84 | 0.0 | 0.0 | 0.00 | 0.00 | 0.00 | 99 | 1016.1 |
| 20260906060253 | 73 | 125 | 0.0 | 0.0 | 0.00 | 0.00 | 0.00 | 99 | 1016.1 |
| 20260906055748 | 72 | 124 | 0.0 | 0.0 | 0.00 | 0.00 | 0.00 | 99 | 1016.3 |
| 20260906055243 | 73 | 106 | 0.0 | 0.0 | 0.00 | 0.00 | 0.00 | 99 | 1016.4 |
| 20260906054739 | 73 | 101 | 0.0 | 0.0 | 0.00 | 0.00 | 0.00 | 99 | 1016.4 |
| 20260906054234 | 73 | 120 | 0.0 | 0.0 | 0.00 | 0.00 | 0.00 | 99 | 1016.4 |
| 20260906053731 | 73 | 117 | 0.0 | 0.0 | 0.00 | 0.00 | 0.00 | 99 | 1016.3 |
| 20260906053226 | 73 | 136 | 0.0 | 0.0 | 0.00 | 0.00 | 0.00 | 99 | 1016.4 |
| 20260906052721 | 73 | 135 | 0.0 | 0.0 | 0.00 | 0.00 | 0.00 | 99 | 1016.9 |
| 20260906052217 | 73 | 133 | 0.0 | 0.0 | 0.00 | 0.00 | 0.00 | 99 | 1016.6 |
| 20260906051714 | 73 | 116 | 0.0 | 0.0 | 0.00 | 0.00 | 0.00 | 99 | 1016.4 |
| 20260906051213 | 73 | 104 | 0.0 | 0.0 | 0.00 | 0.00 | 0.00 | 99 | 1016.4 |
| 20260906050709 | 73 | 143 | 0.0 | 0.0 | 0.00 | 0.00 | 0.00 | 99 | 1016.4 |
| 20260906050204 | 73 | 143 | 0.0 | 0.0 | 0.00 | 0.00 | 0.00 | 99 | 1016.6 |
| 20260906045702 | 73 | 143 | 0.0 | 0.0 | 0.00 | 0.00 | 0.00 | 99 | 1016.8 |
| 20260906045157 | 73 | 143 | 0.0 | 0.0 | 0.00 | 0.00 | 0.00 | 99 | 1016.8 |
| 20260906044653 | 73 | 129 | 0.0 | 0.0 | 0.00 | 0.00 | 0.00 | 99 | 1016.9 |
| 20260906044148 | 73 | 125 | 0.0 | 0.0 | 0.00 | 0.00 | 0.00 | 99 | 1016.9 |
| 20260906043645 | 73 | 116 | 0.0 | 0.0 | 0.00 | 0.00 | 0.00 | 99 | 1016.7 |
| 20260906043140 | 73 | 109 | 0.0 | 0.0 | 0.00 | 0.00 | 0.00 | 99 | 1016.4 |
| 20260906042639 | 73 | 103 | 0.0 | 0.0 | 0.00 | 0.00 | 0.00 | 99 | 1016.6 |
| 20260906042133 | 73 | 131 | 0.0 | 0.0 | 0.00 | 0.00 | 0.00 | 99 | 1016.2 |
| 20260906041629 | 73 | 127 | 0.0 | 0.0 | 0.00 | 0.00 | 0.00 | 99 | 1016.2 |
| 20260906041124 | 73 | 108 | 0.0 | 0.0 | 0.00 | 0.00 | 0.00 | 99 | 1016.1 |
| 20260906040620 | 74 | 137 | 0.0 | 0.0 | 0.00 | 0.00 | 0.00 | 99 | 1016.3 |
| 20260906040115 | 74 | 132 | 0.0 | 0.0 | 0.00 | 0.00 | 0.00 | 99 | 1016.3 |
| 20260906035610 | 74 | 117 | 0.0 | 0.0 | 0.00 | 0.02 | 0.02 | 99 | 1016.3 |
| 20260906035106 | 74 | 117 | 0.0 | 0.0 | 0.00 | 0.02 | 0.02 | 99 | 1016.2 |
| 20260906034606 | 74 | 117 | 0.0 | 0.0 | 0.00 | 0.02 | 0.02 | 99 | 1016.7 |
| 20260906034101 | 74 | 170 | 0.0 | 0.0 | 0.00 | 0.02 | 0.02 | 99 | 1016.6 |
| 20260906033556 | 74 | 150 | 0.0 | 0.0 | 0.00 | 0.02 | 0.02 | 99 | 1016.7 |
| 20260906033051 | 74 | 150 | 0.0 | 0.0 | 0.00 | 0.02 | 0.02 | 99 | 1016.9 |
| 20260906032548 | 74 | 150 | 0.0 | 0.0 | 0.00 | 0.02 | 0.02 | 99 | 1016.9 |
| 20260906032048 | 74 | 150 | 0.0 | 0.0 | 0.00 | 0.02 | 0.02 | 98 | 1016.9 |
| 20260906031543 | 74 | 150 | 0.0 | 0.0 | 0.00 | 0.02 | 0.02 | 98 | 1016.9 |
| 20260906031039 | 75 | 150 | 0.0 | 0.0 | 0.00 | 0.02 | 0.02 | 98 | 1016.9 |
| 20260906030538 | 75 | 150 | 0.0 | 0.0 | 0.00 | 0.02 | 0.02 | 98 | 1016.7 |
| 20260906030037 | 75 | 129 | 0.0 | 0.0 | 0.00 | 0.02 | 0.02 | 97 | 1016.7 |
| 20260906025532 | 75 | 127 | 0.0 | 0.0 | 0.00 | 0.02 | 0.02 | 97 | 1016.7 |
| 20260906025030 | 75 | 146 | 0.0 | 0.0 | 0.00 | 0.02 | 0.02 | 97 | 1016.7 |
| 20260906024526 | 75 | 147 | 0.0 | 0.0 | 0.00 | 0.02 | 0.02 | 97 | 1016.4 |
| 20260906024026 | 75 | 147 | 0.0 | 0.0 | 0.00 | 0.02 | 0.02 | 97 | 1016.6 |
| 20260906023522 | 75 | 146 | 0.0 | 0.0 | 0.00 | 0.02 | 0.02 | 97 | 1016.8 |
| 20260906023017 | 75 | 101 | 0.0 | 0.0 | 0.00 | 0.02 | 0.02 | 96 | 1016.7 |
| 20260906022512 | 75 | 101 | 0.0 | 0.0 | 0.00 | 0.02 | 0.02 | 96 | 1016.9 |
| 20260906022007 | 75 | 100 | 0.0 | 0.0 | 0.00 | 0.02 | 0.02 | 96 | 1016.4 |
| 20260906021502 | 75 | 99 | 0.0 | 0.0 | 0.00 | 0.02 | 0.02 | 96 | 1016.7 |
| 20260906020957 | 75 | 121 | 0.0 | 0.0 | 0.00 | 0.02 | 0.02 | 96 | 1016.7 |
| 20260906020451 | 76 | 132 | 0.0 | 0.0 | 0.00 | 0.02 | 0.02 | 96 | 1016.4 |
| 20260906015950 | 76 | 137 | 0.0 | 0.0 | 0.00 | 0.02 | 0.02 | 96 | 1016.4 |
| 20260906015450 | 76 | 114 | 0.0 | 0.0 | 0.00 | 0.02 | 0.02 | 95 | 1016.3 |
| 20260906014950 | 76 | 113 | 0.0 | 0.0 | 0.00 | 0.02 | 0.02 | 95 | 1016.6 |
| 20260906014449 | 76 | 113 | 0.0 | 0.0 | 0.00 | 0.02 | 0.02 | 94 | 1016.4 |
| 20260906013946 | 77 | 108 | 0.0 | 0.0 | 0.00 | 0.02 | 0.02 | 94 | 1016.4 |
| 20260906013441 | 77 | 106 | 0.0 | 0.0 | 0.00 | 0.02 | 0.02 | 94 | 1016.3 |
| 20260906012936 | 76 | 104 | 0.0 | 0.0 | 0.00 | 0.02 | 0.02 | 94 | 1016.3 |
| 20260906012431 | 77 | 167 | 0.0 | 0.0 | 0.00 | 0.02 | 0.02 | 94 | 1016.6 |
| 20260906011930 | 77 | 167 | 0.0 | 0.0 | 0.00 | 0.02 | 0.02 | 94 | 1015.9 |
| 20260906011426 | 77 | 168 | 0.0 | 0.0 | 0.00 | 0.02 | 0.02 | 93 | 1016.1 |
| 20260906010921 | 77 | 167 | 0.0 | 0.0 | 0.00 | 0.02 | 0.02 | 93 | 1015.9 |
| 20260906010417 | 77 | 167 | 0.0 | 0.0 | 0.00 | 0.02 | 0.02 | 93 | 1016.1 |
| 20260906005913 | 77 | 171 | 0.0 | 0.0 | 0.00 | 0.02 | 0.02 | 92 | 1015.9 |
| 20260906005412 | 78 | 171 | 0.0 | 0.0 | 0.00 | 0.02 | 0.02 | 93 | 1015.9 |
| 20260906004910 | 78 | 171 | 0.0 | 0.0 | 0.00 | 0.02 | 0.02 | 90 | 1015.8 |
| 20260906004404 | 78 | 172 | 0.0 | 0.0 | 0.00 | 0.02 | 0.02 | 90 | 1015.5 |
| 20260906003854 | 78 | 172 | 0.0 | 0.0 | 0.00 | 0.02 | 0.02 | 89 | 1015.7 |
| 20260906003350 | 79 | 172 | 0.0 | 0.0 | 0.00 | 0.02 | 0.02 | 89 | 1015.8 |
| 20260906002845 | 79 | 171 | 0.0 | 0.0 | 0.00 | 0.02 | 0.02 | 87 | 1015.7 |
| 20260906002344 | 80 | 165 | 0.0 | 0.0 | 0.00 | 0.02 | 0.02 | 86 | 1015.5 |
| 20260906001840 | 80 | 165 | 0.0 | 0.0 | 0.00 | 0.02 | 0.02 | 85 | 1015.8 |
| 20260906001336 | 80 | 208 | 0.0 | 0.0 | 0.00 | 0.02 | 0.02 | 85 | 1015.6 |
| 20260906000831 | 80 | 208 | 0.0 | 0.0 | 0.00 | 0.02 | 0.02 | 84 | 1015.6 |
| 20260906000326 | 81 | 208 | 0.0 | 0.0 | 0.00 | 0.02 | 0.02 | 83 | 1015.5 |
| 20260905235826 | 81 | 208 | 0.0 | 0.0 | 0.00 | 0.02 | 0.02 | 82 | 1015.4 |
| 20260905235326 | 82 | 208 | 0.0 | 0.0 | 0.00 | 0.02 | 0.02 | 82 | 1015.4 |
| 20260905234821 | 82 | 210 | 0.0 | 0.0 | 0.00 | 0.02 | 0.02 | 80 | 1015.4 |
| 20260905234316 | 82 | 231 | 0.0 | 0.0 | 0.00 | 0.02 | 0.02 | 80 | 1015.3 |
| 20260905233811 | 83 | 220 | 0.0 | 0.0 | 0.00 | 0.02 | 0.02 | 79 | 1015.4 |
| 20260905233306 | 84 | 196 | 0.0 | 0.0 | 0.00 | 0.02 | 0.02 | 78 | 1015.3 |
| 20260905232805 | 85 | 234 | 0.0 | 0.0 | 0.00 | 0.02 | 0.02 | 76 | 1015.5 |
| 20260905232305 | 85 | 253 | 0.0 | 1.0 | 0.00 | 0.02 | 0.02 | 75 | 1015.5 |
| 20260905231757 | 85 | 228 | 0.0 | 0.0 | 0.00 | 0.02 | 0.02 | 76 | 1015.3 |
| 20260905231252 | 86 | 257 | 3.0 | 3.0 | 0.00 | 0.02 | 0.02 | 73 | 1015.1 |
| 20260905230748 | 87 | 212 | 0.0 | 0.0 | 0.00 | 0.02 | 0.02 | 74 | 1015.4 |
| 20260905230246 | 87 | 207 | 0.0 | 0.0 | 0.00 | 0.02 | 0.02 | 72 | 1015.4 |
| 20260905225745 | 87 | 257 | 1.0 | 1.0 | 0.00 | 0.02 | 0.02 | 71 | 1015.3 |
| 20260905225241 | 87 | 197 | 0.0 | 0.0 | 0.00 | 0.02 | 0.02 | 73 | 1015.5 |
| 20260905224739 | 87 | 255 | 2.0 | 2.0 | 0.00 | 0.02 | 0.02 | 71 | 1015.7 |
| 20260905224236 | 87 | 270 | 3.0 | 3.0 | 0.00 | 0.02 | 0.02 | 70 | 1015.5 |
| 20260905223731 | 87 | 283 | 2.0 | 2.0 | 0.00 | 0.02 | 0.02 | 70 | 1015.7 |
| 20260905223228 | 88 | 275 | 2.0 | 3.0 | 0.00 | 0.02 | 0.02 | 69 | 1015.8 |
| 20260905222724 | 88 | 259 | 2.0 | 3.0 | 0.00 | 0.02 | 0.02 | 68 | 1016.0 |
| 20260905222222 | 88 | 271 | 3.0 | 3.0 | 0.00 | 0.02 | 0.02 | 67 | 1015.7 |
| 20260905221719 | 88 | 287 | 2.0 | 2.0 | 0.00 | 0.02 | 0.02 | 68 | 1016.0 |
| 20260905221216 | 88 | 237 | 1.0 | 2.0 | 0.00 | 0.02 | 0.02 | 68 | 1015.8 |
| 20260905220711 | 88 | 312 | 3.0 | 3.0 | 0.00 | 0.02 | 0.02 | 68 | 1016.1 |
| 20260905220207 | 88 | 349 | 3.0 | 3.0 | 0.00 | 0.02 | 0.02 | 68 | 1016.1 |
| 20260905215706 | 88 | 289 | 3.0 | 3.0 | 0.00 | 0.02 | 0.02 | 67 | 1015.9 |
| 20260905215202 | 88 | 287 | 2.0 | 2.0 | 0.00 | 0.02 | 0.02 | 67 | 1015.9 |
| 20260905214658 | 88 | 301 | 3.0 | 3.0 | 0.00 | 0.02 | 0.02 | 67 | 1015.8 |
| 20260905214153 | 88 | 272 | 2.0 | 2.0 | 0.00 | 0.02 | 0.02 | 67 | 1015.9 |
| 20260905213648 | 88 | 282 | 3.0 | 5.0 | 0.00 | 0.02 | 0.02 | 67 | 1015.8 |
| 20260905213144 | 89 | 230 | 2.0 | 2.0 | 0.00 | 0.02 | 0.02 | 65 | 1015.8 |
| 20260905212639 | 89 | 258 | 3.0 | 3.0 | 0.00 | 0.02 | 0.02 | 65 | 1015.8 |
| 20260905212138 | 88 | 173 | 3.0 | 3.0 | 0.00 | 0.02 | 0.02 | 66 | 1015.9 |
| 20260905211633 | 88 | 290 | 3.0 | 5.0 | 0.00 | 0.02 | 0.02 | 67 | 1015.7 |
| 20260905211128 | 88 | 196 | 3.0 | 3.0 | 0.00 | 0.02 | 0.02 | 66 | 1015.8 |
| 20260905210625 | 88 | 289 | 3.0 | 3.0 | 0.00 | 0.02 | 0.02 | 65 | 1015.6 |
| 20260905210119 | 88 | 232 | 2.0 | 2.0 | 0.00 | 0.02 | 0.02 | 67 | 1015.6 |
| 20260905205619 | 88 | 299 | 4.0 | 5.0 | 0.00 | 0.02 | 0.02 | 64 | 1015.6 |
| 20260905205118 | 88 | 181 | 3.0 | 3.0 | 0.00 | 0.02 | 0.02 | 68 | 1015.5 |
| 20260905204618 | 88 | 204 | 2.0 | 3.0 | 0.00 | 0.02 | 0.02 | 68 | 1015.7 |
| 20260905204113 | 88 | 52 | 3.0 | 3.0 | 0.00 | 0.02 | 0.02 | 68 | 1015.9 |
| 20260905203608 | 88 | 294 | 3.0 | 3.0 | 0.00 | 0.02 | 0.02 | 67 | 1015.9 |
| 20260905203103 | 87 | 283 | 2.0 | 2.0 | 0.00 | 0.02 | 0.02 | 70 | 1015.9 |
| 20260905202054 | 88 | 263 | 5.0 | 5.0 | 0.00 | 0.02 | 0.02 | 68 | 1015.8 |
| 20260905201549 | 88 | 315 | 3.0 | 3.0 | 0.00 | 0.02 | 0.02 | 67 | 1015.7 |
| 20260905201049 | 87 | 271 | 3.0 | 5.0 | 0.00 | 0.02 | 0.02 | 66 | 1015.7 |
| 20260905200544 | 88 | 244 | 2.0 | 2.0 | 0.00 | 0.02 | 0.02 | 67 | 1016.0 |
| 20260905200038 | 87 | 227 | 1.0 | 2.0 | 0.00 | 0.02 | 0.02 | 66 | 1016.0 |
| 20260905195532 | 86 | 27 | 2.0 | 2.0 | 0.00 | 0.02 | 0.02 | 69 | 1016.2 |
| 20260905195028 | 86 | 61 | 4.0 | 5.0 | 0.00 | 0.02 | 0.02 | 71 | 1016.2 |
| 20260905194527 | 87 | 258 | 3.0 | 3.0 | 0.00 | 0.02 | 0.02 | 71 | 1016.1 |
| 20260905194027 | 87 | 229 | 3.0 | 5.0 | 0.00 | 0.02 | 0.02 | 69 | 1016.2 |
| 20260905193522 | 87 | 256 | 2.0 | 2.0 | 0.00 | 0.02 | 0.02 | 66 | 1016.3 |
| 20260905193017 | 86 | 106 | 1.0 | 1.0 | 0.00 | 0.02 | 0.02 | 65 | 1016.4 |
| 20260905192512 | 88 | 216 | 1.0 | 1.0 | 0.00 | 0.02 | 0.02 | 62 | 1016.4 |
| 20260905192009 | 87 | 342 | 1.0 | 1.0 | 0.00 | 0.02 | 0.02 | 65 | 1016.6 |
| 20260905191507 | 87 | 32 | 2.0 | 2.0 | 0.00 | 0.02 | 0.02 | 64 | 1016.6 |
| 20260905191007 | 86 | 63 | 0.0 | 1.0 | 0.00 | 0.02 | 0.02 | 66 | 1016.4 |
| 20260905190504 | 86 | 131 | 1.0 | 2.0 | 0.00 | 0.02 | 0.02 | 66 | 1017.0 |
| 20260905190004 | 86 | 182 | 1.0 | 1.0 | 0.00 | 0.02 | 0.02 | 70 | 1017.4 |
| 20260905185458 | 84 | 112 | 2.0 | 3.0 | 0.00 | 0.02 | 0.02 | 68 | 1017.3 |
| 20260905184957 | 83 | 81 | 3.0 | 3.0 | 0.00 | 0.02 | 0.02 | 70 | 1017.1 |
| 20260905184452 | 84 | 277 | 2.0 | 2.0 | 0.00 | 0.02 | 0.02 | 72 | 1017.4 |
| 20260905183951 | 84 | 72 | 2.0 | 2.0 | 0.00 | 0.02 | 0.02 | 72 | 1017.6 |
| 20260905183451 | 85 | 99 | 1.0 | 1.0 | 0.00 | 0.02 | 0.02 | 70 | 1017.8 |
| 20260905182946 | 84 | 96 | 3.0 | 5.0 | 0.00 | 0.02 | 0.02 | 71 | 1018.0 |
| 20260905182445 | 83 | 149 | 0.0 | 0.0 | 0.00 | 0.02 | 0.02 | 73 | 1018.2 |
| 20260905181940 | 83 | 72 | 2.0 | 5.0 | 0.00 | 0.02 | 0.02 | 75 | 1018.0 |
| 20260905181435 | 83 | 122 | 1.0 | 1.0 | 0.00 | 0.02 | 0.02 | 76 | 1018.3 |
| 20260905180934 | 82 | 98 | 2.0 | 2.0 | 0.00 | 0.02 | 0.02 | 75 | 1018.4 |
| 20260905180429 | 81 | 133 | 3.0 | 3.0 | 0.00 | 0.02 | 0.02 | 77 | 1018.4 |
| 20260905175924 | 81 | 113 | 5.0 | 7.0 | 0.00 | 0.02 | 0.02 | 79 | 1018.3 |
| 20260905175424 | 80 | 80 | 0.0 | 1.0 | 0.00 | 0.02 | 0.02 | 82 | 1018.9 |
| 20260905174919 | 80 | 151 | 1.0 | 1.0 | 0.00 | 0.02 | 0.02 | 83 | 1019.1 |
| 20260905174415 | 78 | 152 | 1.0 | 1.0 | 0.00 | 0.02 | 0.02 | 87 | 1019.1 |
| 20260905173910 | 76 | 98 | 1.0 | 1.0 | 0.00 | 0.02 | 0.02 | 89 | 1019.3 |
| 20260905173407 | 76 | 119 | 1.0 | 2.0 | 0.00 | 0.02 | 0.02 | 93 | 1019.4 |
| 20260905172907 | 76 | 100 | 1.0 | 2.0 | 0.00 | 0.02 | 0.02 | 94 | 1019.4 |
| 20260905172404 | 75 | 96 | 2.0 | 2.0 | 0.00 | 0.02 | 0.02 | 94 | 1019.6 |
| 20260905171901 | 75 | 122 | 1.0 | 1.0 | 0.00 | 0.02 | 0.02 | 95 | 1019.7 |
| 20260905171357 | 75 | 114 | 0.0 | 0.0 | 0.00 | 0.02 | 0.02 | 96 | 1019.4 |
| 20260905170854 | 75 | 82 | 1.0 | 2.0 | 0.00 | 0.02 | 0.02 | 95 | 1019.7 |
| 20260905170349 | 75 | 90 | 0.0 | 0.0 | 0.00 | 0.02 | 0.02 | 95 | 1019.3 |
| 20260905165848 | 75 | 138 | 0.0 | 0.0 | 0.00 | 0.02 | 0.02 | 94 | 1019.2 |
| 20260905165344 | 74 | 232 | 0.0 | 0.0 | 0.00 | 0.02 | 0.02 | 94 | 1019.0 |
| 20260905164838 | 74 | 313 | 1.0 | 2.0 | 0.00 | 0.02 | 0.02 | 95 | 1019.4 |
| 20260905164333 | 74 | 199 | 0.0 | 0.0 | 0.00 | 0.02 | 0.02 | 97 | 1019.3 |
| 20260905163829 | 75 | 142 | 0.0 | 0.0 | 0.00 | 0.02 | 0.02 | 95 | 1019.2 |
| 20260905163325 | 74 | 81 | 0.0 | 0.0 | 0.00 | 0.02 | 0.02 | 94 | 1019.4 |
| 20260905162821 | 74 | 188 | 1.0 | 2.0 | 0.00 | 0.02 | 0.02 | 96 | 1019.3 |
| 20260905162321 | 75 | 315 | 0.0 | 2.0 | 0.00 | 0.02 | 0.02 | 95 | 1019.7 |
| 20260905161815 | 74 | 273 | 2.0 | 2.0 | 0.00 | 0.02 | 0.02 | 95 | 1019.8 |
| 20260905161315 | 75 | 179 | 0.0 | 0.0 | 0.00 | 0.02 | 0.02 | 95 | 1019.9 |
| 20260905160813 | 75 | 182 | 0.0 | 0.0 | 0.00 | 0.02 | 0.02 | 91 | 1019.7 |
| 20260905160308 | 76 | 261 | 6.0 | 9.0 | 0.00 | 0.02 | 0.02 | 90 | 1020.4 |
| 20260905155802 | 77 | 300 | 5.0 | 5.0 | 0.07 | 0.02 | 0.02 | 89 | 1020.0 |
| 20260905155301 | 78 | 291 | 3.0 | 3.0 | 0.12 | 0.02 | 0.02 | 87 | 1019.8 |
| 20260905154755 | 79 | 301 | 3.0 | 5.0 | 0.05 | 0.01 | 0.01 | 85 | 1019.8 |
| 20260905154251 | 80 | 150 | 0.0 | 0.0 | 0.00 | 0.00 | 0.00 | 81 | 1019.6 |
| 20260905153746 | 80 | 63 | 0.0 | 0.0 | 0.00 | 0.00 | 0.00 | 80 | 1019.7 |
| 20260905153242 | 81 | 204 | 0.0 | 1.0 | 0.00 | 0.00 | 0.00 | 85 | 1020.2 |
| 20260905152736 | 82 | 256 | 0.0 | 0.0 | 0.00 | 0.00 | 0.00 | 85 | 1019.9 |
| 20260905152231 | 82 | 91 | 0.0 | 0.0 | 0.00 | 0.00 | 0.00 | 84 | 1018.8 |
| 20260905151731 | 83 | 97 | 0.0 | 0.0 | 0.00 | 0.00 | 0.00 | 82 | 1018.7 |
| 20260905151227 | 83 | 208 | 0.0 | 0.0 | 0.00 | 0.00 | 0.00 | 79 | 1018.9 |
| 20260905150726 | 83 | 198 | 0.0 | 0.0 | 0.00 | 0.00 | 0.00 | 78 | 1018.7 |
| 20260905150226 | 84 | 193 | 0.0 | 0.0 | 0.00 | 0.00 | 0.00 | 80 | 1018.7 |
| 20260905145724 | 83 | 306 | 0.0 | 0.0 | 0.00 | 0.00 | 0.00 | 82 | 1018.5 |
| 20260905145219 | 82 | 180 | 0.0 | 0.0 | 0.00 | 0.00 | 0.00 | 83 | 1018.5 |
| 20260905144717 | 83 | 188 | 0.0 | 0.0 | 0.00 | 0.00 | 0.00 | 81 | 1018.4 |
| 20260905144212 | 83 | 318 | 0.0 | 0.0 | 0.00 | 0.00 | 0.00 | 79 | 1018.2 |
| 20260905143712 | 83 | 131 | 0.0 | 0.0 | 0.00 | 0.00 | 0.00 | 80 | 1018.1 |
| 20260905143206 | 83 | 132 | 0.0 | 0.0 | 0.00 | 0.00 | 0.00 | 79 | 1018.2 |
| 20260905142704 | 83 | 93 | 0.0 | 0.0 | 0.00 | 0.00 | 0.00 | 80 | 1018.1 |
| 20260905142159 | 82 | 133 | 0.0 | 0.0 | 0.00 | 0.00 | 0.00 | 80 | 1018.4 |
| 20260905141654 | 81 | 132 | 0.0 | 0.0 | 0.00 | 0.00 | 0.00 | 84 | 1018.4 |
| 20260905141150 | 81 | 308 | 0.0 | 0.0 | 0.00 | 0.00 | 0.00 | 84 | 1018.3 |
| 20260905140646 | 81 | 357 | 0.0 | 0.0 | 0.00 | 0.00 | 0.00 | 84 | 1018.6 |
| 20260905140145 | 82 | 59 | 0.0 | 0.0 | 0.00 | 0.00 | 0.00 | 81 | 1018.2 |
| 20260905135640 | 82 | 86 | 0.0 | 0.0 | 0.00 | 0.00 | 0.00 | 83 | 1018.7 |
| 20260905135136 | 82 | 107 | 0.0 | 0.0 | 0.00 | 0.00 | 0.00 | 82 | 1018.7 |
| 20260905134630 | 81 | 119 | 0.0 | 0.0 | 0.00 | 0.00 | 0.00 | 84 | 1018.9 |
| 20260905134129 | 82 | 91 | 0.0 | 0.0 | 0.00 | 0.00 | 0.00 | 82 | 1018.9 |
| 20260905133625 | 81 | 104 | 0.0 | 0.0 | 0.00 | 0.00 | 0.00 | 85 | 1018.8 |
| 20260905133125 | 80 | 113 | 0.0 | 0.0 | 0.00 | 0.00 | 0.00 | 85 | 1018.8 |
| 20260905132624 | 79 | 118 | 0.0 | 0.0 | 0.00 | 0.00 | 0.00 | 86 | 1018.9 |
| 20260905132119 | 78 | 108 | 0.0 | 0.0 | 0.00 | 0.00 | 0.00 | 87 | 1018.8 |
| 20260905131614 | 78 | 100 | 0.0 | 0.0 | 0.00 | 0.00 | 0.00 | 87 | 1018.9 |
| 20260905131110 | 79 | 112 | 0.0 | 0.0 | 0.00 | 0.00 | 0.00 | 86 | 1018.8 |
| 20260905130609 | 79 | 87 | 0.0 | 0.0 | 0.00 | 0.00 | 0.00 | 87 | 1018.8 |
| 20260905130104 | 78 | 114 | 0.0 | 0.0 | 0.00 | 0.00 | 0.00 | 89 | 1019.0 |
| 20260905125603 | 78 | 110 | 0.0 | 0.0 | 0.00 | 0.00 | 0.00 | 89 | 1019.1 |
| 20260905125059 | 78 | 106 | 0.0 | 0.0 | 0.00 | 0.00 | 0.00 | 88 | 1019.1 |
| 20260905124555 | 77 | 98 | 0.0 | 0.0 | 0.00 | 0.00 | 0.00 | 91 | 1019.1 |
| 20260905124051 | 76 | 98 | 0.0 | 0.0 | 0.00 | 0.00 | 0.00 | 92 | 1019.3 |
| 20260905123546 | 76 | 108 | 0.0 | 0.0 | 0.00 | 0.00 | 0.00 | 92 | 1019.2 |
| 20260905123043 | 75 | 101 | 0.0 | 0.0 | 0.00 | 0.00 | 0.00 | 93 | 1019.0 |
| 20260905122543 | 75 | 106 | 0.0 | 0.0 | 0.00 | 0.00 | 0.00 | 93 | 1019.1 |
| 20260905122037 | 75 | 111 | 0.0 | 0.0 | 0.00 | 0.00 | 0.00 | 95 | 1019.0 |
| 20260905121532 | 74 | 141 | 0.0 | 0.0 | 0.00 | 0.00 | 0.00 | 96 | 1018.9 |
| 20260905121027 | 73 | 102 | 0.0 | 0.0 | 0.00 | 0.00 | 0.00 | 96 | 1019.0 |
| 20260905120526 | 73 | 90 | 0.0 | 0.0 | 0.00 | 0.00 | 0.00 | 97 | 1018.9 |
| 20260905120022 | 73 | 122 | 0.0 | 0.0 | 0.00 | 0.00 | 0.00 | 99 | 1018.8 |
| 20260905115521 | 71 | 122 | 0.0 | 0.0 | 0.00 | 0.00 | 0.00 | 99 | 1018.7 |
| 20260905115016 | 71 | 108 | 0.0 | 0.0 | 0.00 | 0.00 | 0.00 | 99 | 1018.8 |
| 20260905114515 | 71 | 127 | 0.0 | 0.0 | 0.00 | 0.00 | 0.00 | 99 | 1018.6 |
| 20260905114014 | 71 | 136 | 0.0 | 0.0 | 0.00 | 0.00 | 0.00 | 99 | 1018.6 |
| 20260905113509 | 70 | 152 | 0.0 | 0.0 | 0.00 | 0.00 | 0.00 | 99 | 1018.6 |
| 20260905113005 | 70 | 152 | 0.0 | 0.0 | 0.00 | 0.00 | 0.00 | 99 | 1018.5 |
| 20260905112500 | 70 | 153 | 0.0 | 0.0 | 0.00 | 0.00 | 0.00 | 99 | 1018.3 |
| 20260905111955 | 70 | 119 | 0.0 | 0.0 | 0.00 | 0.00 | 0.00 | 99 | 1018.4 |
| 20260905111450 | 70 | 116 | 0.0 | 0.0 | 0.00 | 0.00 | 0.00 | 99 | 1018.3 |
| 20260905110949 | 70 | 116 | 0.0 | 0.0 | 0.00 | 0.00 | 0.00 | 99 | 1018.5 |
| 20260905110448 | 69 | 111 | 0.0 | 0.0 | 0.00 | 0.00 | 0.00 | 99 | 1018.4 |
| 20260905105943 | 69 | 106 | 0.0 | 0.0 | 0.00 | 0.00 | 0.00 | 99 | 1018.4 |
| 20260905105438 | 70 | 106 | 0.0 | 0.0 | 0.00 | 0.00 | 0.00 | 99 | 1018.4 |
| 20260905104937 | 70 | 138 | 0.0 | 0.0 | 0.00 | 0.00 | 0.00 | 99 | 1018.2 |
| 20260905104433 | 70 | 139 | 0.0 | 0.0 | 0.00 | 0.00 | 0.00 | 99 | 1018.2 |
| 20260905103933 | 70 | 157 | 0.0 | 0.0 | 0.00 | 0.00 | 0.00 | 99 | 1018.0 |
| 20260905103429 | 70 | 157 | 0.0 | 0.0 | 0.00 | 0.00 | 0.00 | 99 | 1018.0 |
| 20260905102924 | 70 | 158 | 0.0 | 0.0 | 0.00 | 0.00 | 0.00 | 99 | 1018.0 |
| 20260905102421 | 70 | 158 | 0.0 | 0.0 | 0.00 | 0.00 | 0.00 | 99 | 1018.0 |
| 20260905101915 | 70 | 161 | 0.0 | 0.0 | 0.00 | 0.00 | 0.00 | 99 | 1018.0 |
| 20260905101414 | 70 | 140 | 0.0 | 0.0 | 0.00 | 0.00 | 0.00 | 99 | 1018.2 |
| 20260905100909 | 70 | 125 | 0.0 | 0.0 | 0.00 | 0.00 | 0.00 | 99 | 1018.1 |
| 20260905100405 | 70 | 130 | 0.0 | 0.0 | 0.00 | 0.00 | 0.00 | 99 | 1018.1 |
| 20260905095904 | 70 | 130 | 0.0 | 0.0 | 0.00 | 0.00 | 0.00 | 99 | 1017.8 |
| 20260905095359 | 70 | 129 | 0.0 | 0.0 | 0.00 | 0.00 | 0.00 | 99 | 1018.0 |
| 20260905094859 | 70 | 130 | 0.0 | 0.0 | 0.00 | 0.00 | 0.00 | 99 | 1018.0 |
| 20260905094354 | 70 | 129 | 0.0 | 0.0 | 0.00 | 0.00 | 0.00 | 99 | 1017.8 |
| 20260905093853 | 70 | 129 | 0.0 | 0.0 | 0.00 | 0.00 | 0.00 | 99 | 1018.1 |
| 20260905093349 | 70 | 129 | 0.0 | 0.0 | 0.00 | 0.00 | 0.00 | 99 | 1018.0 |
| 20260905092845 | 70 | 129 | 0.0 | 0.0 | 0.00 | 0.00 | 0.00 | 99 | 1018.0 |
| 20260905092345 | 70 | 129 | 0.0 | 0.0 | 0.00 | 0.00 | 0.00 | 99 | 1017.9 |
| 20260905091840 | 70 | 129 | 0.0 | 0.0 | 0.00 | 0.00 | 0.00 | 99 | 1017.7 |
| 20260905091339 | 71 | 129 | 0.0 | 0.0 | 0.00 | 0.00 | 0.00 | 99 | 1017.8 |
| 20260905090838 | 70 | 128 | 0.0 | 0.0 | 0.00 | 0.00 | 0.00 | 99 | 1017.6 |
| 20260905090335 | 70 | 128 | 0.0 | 0.0 | 0.00 | 0.00 | 0.00 | 99 | 1017.6 |
| 20260905085834 | 70 | 128 | 0.0 | 0.0 | 0.00 | 0.00 | 0.00 | 99 | 1017.8 |
| 20260905085328 | 70 | 120 | 0.0 | 0.0 | 0.00 | 0.00 | 0.00 | 99 | 1017.5 |
| 20260905084824 | 71 | 123 | 0.0 | 0.0 | 0.00 | 0.00 | 0.00 | 99 | 1017.9 |
| 20260905084323 | 71 | 121 | 0.0 | 0.0 | 0.00 | 0.00 | 0.00 | 99 | 1017.5 |
| 20260905083818 | 71 | 119 | 0.0 | 0.0 | 0.00 | 0.00 | 0.00 | 99 | 1017.9 |
| 20260905083314 | 71 | 120 | 0.0 | 0.0 | 0.00 | 0.00 | 0.00 | 99 | 1017.9 |
| 20260905082809 | 71 | 129 | 0.0 | 0.0 | 0.00 | 0.00 | 0.00 | 99 | 1017.7 |
| 20260905082307 | 71 | 118 | 0.0 | 0.0 | 0.00 | 0.00 | 0.00 | 99 | 1017.7 |
| 20260905081806 | 71 | 118 | 0.0 | 0.0 | 0.00 | 0.00 | 0.00 | 99 | 1017.9 |
| 20260905081301 | 71 | 115 | 0.0 | 0.0 | 0.00 | 0.00 | 0.00 | 99 | 1017.9 |
| 20260905080759 | 71 | 111 | 0.0 | 0.0 | 0.00 | 0.00 | 0.00 | 99 | 1017.9 |
| 20260905080254 | 71 | 111 | 0.0 | 0.0 | 0.00 | 0.00 | 0.00 | 99 | 1018.2 |